Home   Weather   New Bedford   Past weeks

Flag for USA Past Weather in New Bedford, Massachusetts, USA — Yesterday and Last 2 Weeks

Now
44 °F

Partly sunny.


Feels Like: 40 °F
Forecast: 28 / 44 °F
Wind: 7 mph from Northeast

Location: New Bedford Regional Airport

Current Time: Jan 17, 2017 at 2:33:41 pm

Latest Report: Jan 17, 2017 at 1:53 pm


Visibility: 10 mi

Pressure: 30.17 "Hg

Humidity: 51%

Dew Point: 27 °F

Location of New BedfordLocation

Past Weather in New Bedford — Graph

°F

New Bedford Temperature Yesterday

Maximum temperature yesterday: 42 °F (at 11:53 am)
Minimum temperature yesterday: 17 °F (at 3:53 am)
Average temperature yesterday: 31 °F

High & Low Weather Summary for the Past Weeks

 TemperatureHumidityPressure
High56 °F (Jan 12, 11:53 am)96% (Jan 4, 1:18 am)30.70 "Hg (Jan 4, 1:18 am)
Low1 °F (Jan 10, 1:53 am)29% (Jan 13, 8:53 pm)29.33 "Hg (Jan 4, 1:18 am)
Average34 °F70%30.17 "Hg
* Reported Jan 2 12:53 pm — Jan 17 12:53 pm, New Bedford, Weather by CustomWeather, © 2017

Note: Actual official high and low records may vary slightly from our data, if they occured in-between our weather recording intervals... More about our weather records

Advertising

New Bedford Weather History for the Previous 24 Hours

Scroll right to see more
 ConditionsComfort  
Time TempWeatherWind HumidityBarometerVisibility
12:53 pm
Tue, Jan 17
44 °FSunny.5 mph43%30.18 "Hg10 mi
11:53 am41 °FMore clouds than sun.9 mph45%30.21 "Hg10 mi
10:53 am40 °FOvercast.6 mph45%30.22 "Hg10 mi
9:53 am39 °FOvercast.No wind53%30.24 "Hg10 mi
8:53 am35 °FScattered clouds.No wind72%30.24 "Hg10 mi
7:53 am29 °FPassing clouds.No wind85%30.22 "Hg10 mi
6:53 am33 °FClear.No wind72%30.21 "Hg10 mi
5:53 am35 °FOvercast.No wind67%30.20 "Hg10 mi
4:53 am34 °FOvercast.3 mph73%30.19 "Hg10 mi
3:53 am35 °FOvercast.No wind67%30.20 "Hg10 mi
2:53 am37 °FOvercast.3 mph62%30.21 "Hg10 mi
1:53 am35 °FClear.5 mph70%30.21 "Hg10 mi
12:53 am35 °FClear.3 mph67%30.22 "Hg10 mi
11:53 pm
Mon, Jan 16
36 °FClear.8 mph64%30.23 "Hg10 mi
10:53 pm36 °FClear.10 mph64%30.25 "Hg10 mi
9:53 pm35 °FClear.8 mph67%30.27 "Hg10 mi
8:53 pm35 °FClear.9 mph67%30.28 "Hg10 mi
7:53 pm35 °FClear.6 mph64%30.29 "Hg10 mi
6:53 pm35 °FClear.9 mph59%30.30 "Hg10 mi
5:53 pm35 °FClear.7 mph59%30.30 "Hg10 mi
4:53 pm36 °FClear.10 mph59%30.30 "Hg10 mi
3:53 pm39 °FSunny.10 mph48%30.31 "Hg10 mi
2:53 pm40 °FSunny.12 mph47%30.31 "Hg10 mi
Weather by CustomWeather, © 2017

See weather overviewHow to use our weather pages